Home > Weather > Wageningen > Past weeks

Flag for Netherlands Weather for the Past 2 Weeks in Wageningen, Netherlands

Now
46 °F

More clouds than sun.


Feels Like: 41 °F
Forecast: 36 / 51 °F
Wind: 12 mph from South

Location: Deelen

Current Time: Apr 29, 2016 at 10:17:31 PM

Latest Report: Apr 29, 2016 at 9:25 PM


Visibility: N/A

Pressure: 29.92 "Hg

Humidity: 82%

Dew Point: 41 °F

Location of WageningenLocation

Historic Weather in Wageningen — Graph

°F

Wageningen Temperature Yesterday

Maximum temperature yesterday: 48 °F (at 11:55 AM)
Minimum temperature yesterday: 32 °F (at 6:55 AM)
Average temperature yesterday: 41 °F

High & Low Weather Summary for the Past Weeks

 TemperatureHumidityPressure
High63 °F (Apr 21, 3:25 PM)100% (Apr 15, 8:55 AM)30.48 "Hg (Apr 15, 8:55 AM)
Low28 °F (Apr 20, 3:55 AM)39% (Apr 20, 4:25 PM)29.39 "Hg (Apr 16, 5:25 AM)
Average44 °F77%29.91 "Hg
* Reported Apr 14 8:25 PM — Apr 29 8:55 PM, Wageningen, Weather by CustomWeather, © 2016

Note: Actual official high and low records may vary slightly from our data, if they occured in-between our weather recording intervals... More about our weather records

Advertising

Wageningen Weather History for the Previous 24 Hours

Scroll right to see more
 ConditionsComfort  
Time TempWeatherWind HumidityBarometerVisibility
8:55 PM
Fri, Apr 29
46 °FMore clouds than sun.9 mph82%29.92 "HgN/A
8:25 PM46 °FMostly cloudy.9 mph82%29.92 "HgN/A
7:55 PM46 °FScattered clouds.9 mph87%29.92 "HgN/A
7:25 PM46 °FMore clouds than sun.7 mph87%29.92 "HgN/A
6:55 PM46 °FScattered clouds.8 mph87%29.92 "HgN/A
6:25 PM45 °FScattered clouds.6 mph93%29.92 "HgN/A
5:55 PM45 °FRain. More clouds than sun.15 mph87%29.92 "Hg3 mi
5:25 PM48 °FPartly sunny.5 mph87%29.92 "HgN/A
4:55 PM46 °FScattered clouds.7 mph87%29.92 "HgN/A
4:25 PM45 °FDrizzle. Mostly cloudy.8 mph87%29.92 "HgN/A
3:55 PM45 °FLight rain. Cloudy.7 mph87%29.92 "Hg4 mi
3:25 PM45 °FDrizzle. Overcast.10 mph87%29.89 "HgN/A
2:55 PM48 °FMostly cloudy.18 mph66%29.89 "HgN/A
2:25 PM48 °FMore clouds than sun.16 mph66%29.89 "HgN/A
1:55 PM48 °FBroken clouds.17 mph71%29.89 "HgN/A
1:25 PM48 °FBroken clouds.15 mph66%29.89 "HgN/A
12:55 PM48 °FBroken clouds.20 mph71%29.86 "HgN/A
12:25 PM46 °FPassing clouds.20 mph71%29.86 "HgN/A
11:55 AM46 °FScattered clouds.17 mph76%29.86 "HgN/A
11:25 AM45 °FPartly sunny.13 mph87%29.86 "HgN/A
10:55 AM45 °FLight rain. Cloudy.16 mph81%29.86 "HgN/A
10:25 AM45 °FLight rain. Mostly cloudy.18 mph81%29.86 "HgN/A
9:55 AM43 °FDrizzle. Mostly cloudy.17 mph87%29.86 "HgN/A
9:25 AM43 °FDrizzle. Overcast.16 mph81%29.83 "HgN/A
8:55 AM43 °FDrizzle. Overcast.14 mph76%29.83 "HgN/A
8:25 AM43 °FDrizzle. Overcast.14 mph76%29.83 "HgN/A
7:55 AM43 °FDrizzle. Partly sunny.16 mph71%29.83 "HgN/A
7:25 AM43 °FPartly sunny.16 mph71%29.83 "HgN/A
6:55 AM41 °FPassing clouds.14 mph76%29.83 "HgN/A
6:25 AM41 °FPassing clouds.15 mph76%29.83 "HgN/A
5:55 AM41 °FOvercast.12 mph76%29.83 "HgN/A
5:25 AM41 °FPassing clouds.13 mph76%29.83 "HgN/A
4:55 AM41 °FMostly cloudy.13 mph76%29.86 "HgN/A
4:25 AM41 °FOvercast.12 mph76%29.86 "HgN/A
3:55 AM41 °FOvercast.12 mph76%29.86 "HgN/A
3:25 AM41 °FOvercast.13 mph76%29.86 "HgN/A
2:55 AM39 °FOvercast.12 mph81%29.89 "HgN/A
2:25 AM39 °FPassing clouds.9 mph87%29.89 "HgN/A
1:55 AM37 °FPassing clouds.8 mph93%29.89 "HgN/A
1:25 AM37 °FOvercast.7 mph93%29.92 "HgN/A
12:55 AM37 °FPassing clouds.6 mph87%29.92 "HgN/A
12:25 AM37 °FPassing clouds.7 mph87%29.92 "HgN/A
11:55 PM
Thu, Apr 28
37 °FChilly.6 mph87%29.92 "HgN/A
11:25 PM37 °FPassing clouds.7 mph87%29.92 "HgN/A
10:55 PM37 °FOvercast.6 mph87%29.95 "HgN/A
10:25 PM37 °FPassing clouds.5 mph87%29.95 "HgN/A
Weather by CustomWeather, © 2016

See weather overviewHow to use our weather pages